Regional Weather Roundup
Issued by NWS Kansas City/Pleasant Hill, MO

Home | Current Version | Previous Version | Graphics & Text | Print | Product List | Glossary Off
Versions: 1 2 3 4 5 6 7 8 9 10 11 12 13 14 15 16 17 18 19 20 21 22 23 24 25 26 27 28 29 30 31 32 33 34 35 36 37 38 39 40 41 42 43 44 45 46 47 48 49 50

000
ASUS43 KEAX 281604
RWREAX

WEATHER ROUNDUP FOR EASTERN KANSAS AND NORTHWEST MISSOURI
NATIONAL WEATHER SERVICE KANSAS CITY/PLEASANT HILL MO
1000 AM CST SAT FEB 28 2015

KSZ040-057-103>105-MOZ028-029-037-043-281700-
...KANSAS CITY METROPOLITAN AREA...

CITY           SKY/WX    TMP DP  RH WIND       PRES   REMARKS
K.C. INTL      LGT SNOW  19  12  74 SE8       30.50F WCI   9
K.C. DOWNTOWN  LGT SNOW  21  13  71 SE7       30.53S WCI  12
LEES SUMMIT    LGT SNOW  20  11  68 SE7       30.52R WCI  11
OLATHE - IXD   LGT SNOW  19  14  81 SE8       30.51S VSB 1   WCI   9
OLATHE - OJC   LGT SNOW  18  15  88 SE8       30.50S FOG     WCI   8
LAWRENCE       SNOW      19  15  84 SE8       30.52F VSB 1/2 WCI   9

$$

MOZ001>008-011>017-020>025-030>033-038>040-044>046-053-054-281700-
...NORTHERN AND CENTRAL MISSOURI...

CITY           SKY/WX    TMP DP  RH WIND       PRES   REMARKS
ST. JOSEPH     LGT SNOW  19  13  77 SE7       30.54R VSB 3/4 WCI  10
MOSBY          CLOUDY    21  10  63 SE8       30.54S WCI  12
WHITEMAN AFB   NOT AVBL
CLINTON        LGT SNOW  25  16  68 SE9       30.54R WCI  15
SEDALIA        CLOUDY    24   9  52 SE12      30.54S WCI  13
WARSAW         NOT AVBL
MARSHALL       CLOUDY    23  14  68 E12       30.55F WCI  12
CHILLICOTHE      N/A     20  10  65 VRB6      30.56F WCI  12
MOBERLY        MOSUNNY   25  10  54 E10G16    30.56F WCI  15
KIRKSVILLE     SUNNY     19  10  68 SE10      30.55F WCI   7

$$

MOZ041-047>049-056>058-063>065-088>090-097-281700-
...EASTERN AND SOUTHERN MISSOURI...

CITY           SKY/WX    TMP DP  RH WIND       PRES   REMARKS
ST. LOUIS INTL PTSUNNY   22   8  55 E9        30.63F WCI  12
SPIRIT OF STL  CLOUDY    23   8  52 E8        30.62F WCI  14
COLUMBIA       CLOUDY    22  10  60 SE9       30.55F WCI  12
JEFFERSON CITY CLOUDY    22  10  60 SE10G20   30.58F WCI  11
HANNIBAL       SUNNY     23   3  42 E6        30.60F WCI  16
ROLLA          FLURRIES  21  11  65 E13       30.51F WCI   9
LEBANON        LGT SNOW  21  16  79 SE9       30.50S WCI  11
OSAGE BEACH    CLOUDY    25  10  54 SE10      30.53F WCI  15
SPRINGFIELD    LGT SNOW  22  16  78 SE12      30.47F VSB 1   WCI  10
BRANSON        LGT SNOW  23  16  74 E10       30.48F WCI  12
NEVADA         LGT SNOW  21  18  86 SE6       30.52F VSB 1   WCI  14
JOPLIN         SNOW      22  18  85 E7        30.48F VSB 1/2 WCI  13
WEST PLAINS    LGT SNOW  21  15  78 E9        30.52F WCI  11

$$

IAZ060-094-KSZ022-034>040-054-083-096-NEZ052-066-093-281700-
...KANSAS...SOUTHEAST NEBRASKA AND IOWA...

CITY           SKY/WX    TMP DP  RH WIND       PRES   REMARKS
TOPEKA         LGT SNOW  19  15  84 E8        30.51F VSB 1   WCI   9
MANHATTAN      SNOW      19  15  84 SE8       30.46F VSB 1/2 WCI   9
EMPORIA        LGT SNOW  18  15  88 SE9       30.44F VSB 3/4 WCI   7
CHANUTE        SNOW      21  18  88 E7        30.47F VSB 1/2 WCI  12
WICHITA        SNOW      18  14  84 SE8       30.41F VSB 1/2 WCI   8
OMAHA          MOSUNNY   18   8  65 S10       30.49F WCI   6
LINCOLN        MOSUNNY   17  10  74 S9        30.46S WCI   6
FALLS CITY     LGT SNOW  20  10  65 S13       30.51R WCI   7
LAMONI         MOSUNNY   16   7  67 SE5       30.51F WCI   9
DES MOINES     MOSUNNY   13   1  59 S8        30.55F WCI   2

$$




USA.gov is the U.S. government's official web portal to all federal, state and local government web resources and services.